When you browse on this site, cookies collect data to enhance your experience and personalize the content and advertising you see.
Visit our Privacy Policy to learn more. By continuing to use the site, you agree to this use of cookies and data.
  • In Romania
  • List of Countries
  • For 7 days
  • Water Temperature
  • Satellite Maps
  • Weather Map
  • Weather Widgets
  • user-avatar
    Login

    Hourly Weather Modlecin

    Today, 22 February, Friday

    Time Temperature Precipitation Wind Pressure Humidity
    00:00 +5°C° 1 mm 5 mps 744 mmHg 92%
    01:00 +5°C° 0 mm 3 mps 744 mmHg 92%
    02:00 +5°C° 0.7 mm 4 mps 744 mmHg 93%
    03:00 +5°C° 0.7 mm 4 mps 744 mmHg 94%
    04:00 +5°C° 0.7 mm 5 mps 744 mmHg 95%
    05:00 +3°C° 0.3 mm 5 mps 745 mmHg 93%
    06:00 +2°C° 0.3 mm 6 mps 746 mmHg 92%
    07:00 +1°C° 0 mm 5 mps 748 mmHg 88%
    08:00 0°C° 0.1 mm 5 mps 749 mmHg 85%
    09:00 -1°C° 0.1 mm 5 mps 750 mmHg 82%
    10:00 -3°C° 0.1 mm 6 mps 751 mmHg 79%
    11:00 -3°C° 0 mm 6 mps 752 mmHg 71%
    12:00 -2°C° 0 mm 6 mps 753 mmHg 63%
    13:00 -1°C° 0 mm 5 mps 754 mmHg 53%
    14:00 -1°C° 0 mm 5 mps 754 mmHg 52%
    15:00 -2°C° 0 mm 5 mps 755 mmHg 50%
    16:00 -2°C° 0 mm 5 mps 755 mmHg 49%
    17:00 -3°C° 0 mm 4 mps 756 mmHg 52%
    18:00 -4°C° 0 mm 3 mps 757 mmHg 55%
    19:00 -5°C° 0 mm 3 mps 757 mmHg 59%
    20:00 -5°C° 0 mm 3 mps 758 mmHg 58%
    21:00 -4°C° 0 mm 2 mps 758 mmHg 57%
    22:00 -4°C° 0 mm 2 mps 759 mmHg 57%
    23:00 -4°C° 0 mm 2 mps 759 mmHg 55%

    Tomorrow, 23 February, Saturday

    Time Temperature Precipitation Wind Pressure Humidity
    00:00 -4°C° 0 mm 2 mps 759 mmHg 53%
    01:00 -4°C° 0 mm 2 mps 760 mmHg 52%
    02:00 -3°C° 0 mm 1 mps 760 mmHg 51%
    03:00 -3°C° 0 mm 1 mps 760 mmHg 51%
    04:00 -3°C° 0 mm 1 mps 760 mmHg 50%
    05:00 -3°C° 0 mm 1 mps 760 mmHg 50%
    06:00 -3°C° 0 mm 1 mps 760 mmHg 50%
    07:00 -3°C° 0 mm 1 mps 760 mmHg 50%
    08:00 -2°C° 0 mm 1 mps 760 mmHg 44%
    09:00 -1°C° 0 mm 1 mps 760 mmHg 38%
    10:00 -2°C° 0 mm 2 mps 760 mmHg 33%
    11:00 -2°C° 0 mm 2 mps 760 mmHg 31%
    12:00 -1°C° 0 mm 2 mps 760 mmHg 28%
    13:00 +1°C° 0 mm 2 mps 760 mmHg 26%
    14:00 +1°C° 0 mm 2 mps 759 mmHg 27%
    15:00 +1°C° 0 mm 2 mps 759 mmHg 29%
    16:00 +1°C° 0 mm 2 mps 759 mmHg 30%
    17:00 -1°C° 0 mm 2 mps 759 mmHg 34%
    18:00 -2°C° 0 mm 2 mps 758 mmHg 38%
    19:00 -1°C° 0 mm 1 mps 758 mmHg 42%
    20:00 -1°C° 0 mm 1 mps 758 mmHg 41%
    21:00 -1°C° 0 mm 1 mps 758 mmHg 41%
    22:00 -1°C° 0 mm 1 mps 758 mmHg 40%
    23:00 -1°C° 0 mm 1 mps 758 mmHg 38%

    Day after tomorrow, 24 February, Sunday

    Time Temperature Precipitation Wind Pressure Humidity
    00:00 -1°C° 0 mm 1 mps 758 mmHg 36%
    01:00 0°C° 0 mm 1 mps 758 mmHg 35%
    02:00 0°C° 0 mm 1 mps 757 mmHg 34%
    03:00 0°C° 0 mm 1 mps 757 mmHg 33%
    04:00 -1°C° 0 mm 0 mps 757 mmHg 32%
    05:00 0°C° 0 mm 1 mps 757 mmHg 32%
    06:00 +1°C° 0 mm 1 mps 757 mmHg 31%
    07:00 +1°C° 0 mm 1 mps 757 mmHg 31%
    08:00 +2°C° 0 mm 1 mps 757 mmHg 29%
    09:00 +4°C° 0 mm 1 mps 757 mmHg 28%
    10:00 +5°C° 0 mm 1 mps 757 mmHg 26%
    11:00 +6°C° 0 mm 1 mps 757 mmHg 27%
    12:00 +6°C° 0 mm 2 mps 757 mmHg 28%
    13:00 +8°C° 0 mm 2 mps 756 mmHg 28%
    14:00 +7°C° 0 mm 2 mps 756 mmHg 34%
    15:00 +7°C° 0 mm 2 mps 756 mmHg 40%
    16:00 +6°C° 0 mm 2 mps 756 mmHg 46%
    17:00 +5°C° 0 mm 2 mps 756 mmHg 49%
    18:00 +4°C° 0 mm 2 mps 756 mmHg 52%
    19:00 +2°C° 0 mm 2 mps 756 mmHg 54%
    20:00 +2°C° 0 mm 2 mps 756 mmHg 55%
    21:00 +2°C° 0 mm 2 mps 756 mmHg 55%
    22:00 +2°C° 0 mm 2 mps 756 mmHg 56%
    23:00 +2°C° 0 mm 2 mps 756 mmHg 57%

    25 February, Monday

    Time Temperature Precipitation Wind Pressure Humidity
    00:00 +2°C° 0 mm 2 mps 756 mmHg 58%
    01:00 +2°C° 0 mm 2 mps 757 mmHg 59%
    02:00 +2°C° 0 mm 2 mps 756 mmHg 60%
    03:00 +2°C° 0 mm 2 mps 756 mmHg 61%
    04:00 +2°C° 0 mm 2 mps 756 mmHg 62%
    05:00 +2°C° 0 mm 2 mps 756 mmHg 63%
    06:00 +1°C° 0 mm 2 mps 756 mmHg 64%
    07:00 +1°C° 0 mm 2 mps 756 mmHg 65%
    08:00 +3°C° 0 mm 2 mps 756 mmHg 61%
    09:00 +3°C° 0 mm 3 mps 757 mmHg 58%
    10:00 +5°C° 0 mm 3 mps 757 mmHg 54%
    11:00 +7°C° 0 mm 3 mps 757 mmHg 56%
    12:00 +8°C° 0 mm 3 mps 756 mmHg 58%
    13:00 +9°C° 0 mm 3 mps 756 mmHg 60%
    14:00 +8°C° 0 mm 3 mps 756 mmHg 63%
    15:00 +8°C° 0 mm 2 mps 756 mmHg 65%
    16:00 +8°C° 0 mm 2 mps 755 mmHg 68%
    17:00 +7°C° 0 mm 2 mps 755 mmHg 72%
    18:00 +6°C° 0 mm 2 mps 755 mmHg 77%
    19:00 +4°C° 0 mm 2 mps 755 mmHg 81%
    20:00 +4°C° 0 mm 2 mps 755 mmHg 80%
    21:00 +4°C° 0 mm 2 mps 755 mmHg 79%
    22:00 +3°C° 0 mm 2 mps 755 mmHg 79%
    23:00 +3°C° 0 mm 2 mps 755 mmHg 78%

    26 February, Tuesday

    Time Temperature Precipitation Wind Pressure Humidity
    00:00 +3°C° 0 mm 2 mps 755 mmHg 77%
    01:00 +2°C° 0 mm 3 mps 754 mmHg 76%
    02:00 +2°C° 0 mm 3 mps 754 mmHg 74%
    03:00 +2°C° 0 mm 3 mps 754 mmHg 73%
    04:00 +2°C° 0 mm 3 mps 753 mmHg 72%
    05:00 +2°C° 0 mm 3 mps 753 mmHg 70%
    06:00 +2°C° 0 mm 3 mps 753 mmHg 67%
    07:00 +2°C° 0 mm 3 mps 753 mmHg 65%
    08:00 +4°C° 0 mm 4 mps 753 mmHg 60%
    09:00 +5°C° 0 mm 4 mps 753 mmHg 55%
    10:00 +7°C° 0 mm 5 mps 753 mmHg 50%
    11:00 +8°C° 0 mm 5 mps 753 mmHg 48%
    12:00 +10°C° 0 mm 6 mps 752 mmHg 45%
    13:00 +11°C° 0 mm 6 mps 752 mmHg 43%
    14:00 +10°C° 0 mm 6 mps 752 mmHg 45%
    15:00 +10°C° 0 mm 6 mps 752 mmHg 48%
    16:00 +10°C° 0 mm 5 mps 751 mmHg 50%
    17:00 +8°C° 0 mm 5 mps 751 mmHg 56%
    18:00 +7°C° 0 mm 4 mps 751 mmHg 62%
    19:00 +6°C° 0 mm 4 mps 752 mmHg 69%
    20:00 +5°C° 0 mm 3 mps 752 mmHg 72%
    21:00 +5°C° 0 mm 3 mps 752 mmHg 75%
    22:00 +4°C° 0 mm 3 mps 752 mmHg 78%
    23:00 +4°C° 0 mm 3 mps 752 mmHg 79%

    27 February, Wednesday

    Time Temperature Precipitation Wind Pressure Humidity
    00:00 +4°C° 0 mm 2 mps 751 mmHg 79%
    01:00 +4°C° 0 mm 2 mps 751 mmHg 79%
    02:00 +4°C° 0 mm 2 mps 751 mmHg 79%
    03:00 +4°C° 0 mm 2 mps 751 mmHg 79%
    04:00 +3°C° 0 mm 2 mps 751 mmHg 79%
    05:00 +3°C° 0 mm 2 mps 751 mmHg 79%
    06:00 +3°C° 0 mm 2 mps 750 mmHg 78%
    07:00 +3°C° 0 mm 2 mps 750 mmHg 78%
    08:00 +5°C° 0 mm 2 mps 750 mmHg 71%
    09:00 +7°C° 0 mm 2 mps 750 mmHg 64%
    10:00 +9°C° 0 mm 2 mps 750 mmHg 57%
    11:00 +12°C° 0 mm 2 mps 749 mmHg 53%
    12:00 +12°C° 0 mm 3 mps 749 mmHg 49%
    13:00 +13°C° 0 mm 3 mps 748 mmHg 45%
    14:00 +13°C° 0 mm 3 mps 748 mmHg 47%
    15:00 +13°C° 0 mm 3 mps 747 mmHg 49%
    16:00 +13°C° 0 mm 3 mps 746 mmHg 51%
    17:00 +11°C° 0 mm 3 mps 746 mmHg 56%
    18:00 +10°C° 0 mm 3 mps 745 mmHg 62%
    19:00 +8°C° 0 mm 3 mps 745 mmHg 68%
    20:00 +8°C° 0 mm 3 mps 745 mmHg 66%
    21:00 +8°C° 0 mm 3 mps 744 mmHg 64%
    22:00 +8°C° 0 mm 3 mps 744 mmHg 63%
    23:00 +6°C° 0 mm 4 mps 743 mmHg 65%
    Show more